www.pogodaiklimat.ru

Погода и климат >> Архив погоды >> Норвегия >> Juvvasshoe


ПОГОДА в Juvvasshoe

  • Прогноз погоды в Juvvasshoe
  • Монитор погоды в Juvvasshoe
  • Климат города

АРХИВ ПОГОДЫ в Juvvasshoe

Время (UTC), дата Ветер
(напр.,м/с)
 
Видим.   Явления Облачность Т
(С)
Тd
(С)
f
(%)
Тe
(С)
Тes
(С)
Комфортность P
(гПа)
Po
(гПа)
Тmin
(С)
Tmax
(С)
R
(мм)
R24
(мм)
S
(см)
04 16.01 Ю 17-19
{22}
н/о н/о -11.0 -11.7 95 -24 -24 975.4 975.0
05 16.01 Ю 17-20
{21}
н/о н/о -11.3 -12.0 95 -25 -25 974.7 975.0
06 16.01 Ю 13-18
{25}
н/о н/о -11.7 -12.5 94 -24 -24 975.4 975.0 -12.1 -10.9 52
07 16.01 ЮВ 11-15
{15}
н/о н/о -12.2 -13.0 94 -24 -24 976.1 976.0
08 16.01 Ю 12-14
{15}
н/о н/о -12.4 -13.2 94 -24 -24 975.8 976.0
09 16.01 Ю 10-14
{14}
н/о н/о -12.5 -13.3 94 -24 -24 975.8 976.0
10 16.01 Ю 10-11
{12}
н/о н/о -12.5 -13.3 94 -24 -24 975.7 976.0
11 16.01 ЮВ 9-12
{12}
н/о н/о -12.5 -13.4 93 -23 -23 975.4 975.0
12 16.01 Ю 9-10
{15}
н/о н/о -12.4 -13.2 94 -23 -23 975.0 975.0
13 16.01 Ю 6-11
{11}
н/о н/о -12.5 -13.4 93 -21 -21 975.3 975.0
14 16.01 Ю 7-8
{8}
н/о н/о -12.6 -13.5 93 -22 -22 975.5 976.0
15 16.01 Ю 6-8
{8}
н/о н/о -12.7 -13.6 93 -22 -22 975.7 976.0
16 16.01 Ю 4-7
{7}
н/о н/о -12.7 -13.6 93 -20 -20 976.1 976.0
17 16.01 Ю 1-5
{5}
н/о н/о -12.7 -13.6 93 -15 -15 976.6 977.0
18 16.01 Ю 4-4
{11}
н/о н/о -13.3 -14.2 93 -21 -21 977.3 977.0 -13.7 -11.7
19 16.01 Ю 1-6
{10}
н/о н/о -12.4 -13.3 93 -15 -15 977.4 977.0
20 16.01 Ю 6-5
{8}
н/о н/о -12.1 -13.0 93 -21 -21 977.6 978.0
21 16.01 Ю 9-9
{10}
н/о н/о -12.3 -13.2 93 -23 -23 977.9 978.0
22 16.01 Ю 9-11
{13}
н/о н/о -12.9 -13.8 93 -24 -24 979.1 979.0
23 16.01 Ю 8-12
{12}
н/о н/о -13.2 -14.1 93 -24 -24 980.1 980.0
00 17.01 Ю 9-10
{13}
н/о н/о -13.5 -14.4 93 -24 -24 980.6 981.0
01 17.01 Ю 11-10
{13}
н/о н/о -12.8 -13.7 93 -25 -25 980.5 981.0
02 17.01 Ю 10-13
{14}
н/о н/о -13.2 -14.2 92 -25 -25 981.6 982.0
03 17.01 Ю 10-12
{13}
н/о н/о -13.1 -14.0 93 -24 -24 981.6 982.0
04 17.01 Ю 11-11
{14}
н/о н/о -13.4 -14.4 92 -25 -25 982.0 982.0
05 17.01 Ю 9-11
{11}
н/о н/о -13.0 -13.9 93 -24 -24 982.5 983.0
06 17.01 Ю 8-12
{14}
н/о н/о -13.7 -14.8 91 -24 -24 984.3 984.0 -14.2 -11.8 51
07 17.01 Ю 1-8
{8}
н/о н/о -14.6 -15.7 91 -17 -17 986.5 987.0
08 17.01 ЮЗ 4-3
{5}
н/о н/о -13.5 -14.4 93 -21 -21 986.0 986.0
09 17.01 Ю 5-6
{8}
н/о н/о -13.2 -14.0 94 -22 -22 986.2 986.0
10 17.01 Ю 5-5
{6}
н/о н/о -13.8 -14.9 91 -22 -22 987.2 987.0
11 17.01 Ю 6-6
{7}
н/о н/о -12.9 -13.9 92 -22 -22 986.5 987.0
12 17.01 Ю 6-7
{8}
н/о н/о -13.9 -15.2 90 -23 -23 987.3 987.0
13 17.01 Ю 3-6
{6}
н/о н/о -14.5 -15.7 91 -21 -21 988.6 989.0
14 17.01 Ю 1-6
{6}
н/о н/о -13.0 -14.0 92 -15 -15 988.0 988.0
15 17.01 ЮВ 1-2
{5}
н/о н/о -13.4 -14.4 92 -16 -16 988.6 989.0
16 17.01 штиль 0-2
{2}
н/о н/о -13.6 -14.7 91 -14 -14 989.4 989.0
17 17.01 Ю 2-1
{3}
н/о н/о -13.1 -14.1 92 -18 -18 989.2 989.0
18 17.01 Ю 3-4
{6}
н/о н/о -13.9 -15.1 91 -20 -20 990.0 990.0 -15.5 -12.4
19 17.01 Ю 6-3
{6}
н/о н/о -15.6 -16.9 90 -25 -25 991.5 992.0
20 17.01 Ю 4-7
{7}
н/о н/о -14.8 -16.2 89 -23 -23 991.4 991.0
21 17.01 Ю 5-4
{6}
н/о н/о -16.0 -17.3 90 -25 -25 992.8 993.0
22 17.01 Ю 7-7
{8}
н/о н/о -16.2 -17.6 89 -27 -27 992.9 993.0
23 17.01 Ю 3-6
{6}
н/о н/о -15.6 -16.9 90 -22 -22 992.8 993.0
00 18.01 Ю 5-6
{8}
н/о н/о -16.5 -17.7 90 -26 -26 993.7 994.0
01 18.01 Ю 5-5
{6}
н/о н/о -15.3 -16.4 91 -24 -24 992.1 992.0
02 18.01 ЮВ 6-7
{7}
н/о н/о -15.3 -16.4 91 -25 -25 992.2 992.0
03 18.01 Ю 7-6
{8}
н/о н/о -15.0 -16.1 91 -25 -25 991.7 992.0
04 18.01 Ю 8-7
{9}
н/о н/о -15.3 -16.5 90 -26 -26 991.4 991.0
05 18.01 Ю 7-9
{9}
н/о н/о -16.1 -17.1 92 -27 -27 992.5 993.0
06 18.01 Ю 4-8
{9}
н/о н/о -17.4 -18.8 89 -26 -26 993.9 994.0 -17.7 -13.9 51
07 18.01 Ю 6-6
{8}
н/о н/о -16.0 -17.3 90 -26 -26 992.3 992.0
08 18.01 Ю 4-7
{7}
н/о н/о -16.2 -17.2 92 -24 -24 993.3 993.0
09 18.01 Ю 4-3
{6}
н/о н/о -16.9 -18.2 90 -25 -25 993.6 994.0
10 18.01 Ю 3-8
{8}
н/о н/о -15.5 -16.6 91 -22 -22 992.8 993.0
11 18.01 Ю 2-6
{7}
н/о н/о -15.3 -16.4 91 -20 -20 992.7 993.0
12 18.01 В 1-2
{8}
н/о н/о -14.9 -16.0 91 -17 -17 992.5 993.0
13 18.01 СЗ 1-1
{3}
н/о н/о -15.4 -16.6 90 -18 -18 993.2 993.0
14 18.01 штиль 0-1
{1}
н/о н/о -16.2 -17.5 90 -16 -16 994.4 994.0
15 18.01 штиль 0-1
{1}
н/о н/о -16.6 -17.9 90 -17 -17 995.0 995.0
16 18.01 С 1
{3}
н/о н/о -15.9 -17.1 90 -19 -19 994.9 995.0
17 18.01 штиль 0
{2}
н/о н/о -15.1 -16.2 91 -15 -15 994.3 994.0
18 18.01 З 3-2
{7}
н/о н/о -14.6 -15.9 90 -21 -21 993.9 994.0 -18.2 -13.5
19 18.01 З 7-2
{10}
н/о н/о -13.5 -14.5 92 -23 -23 993.5 994.0
20 18.01 ЮЗ 7-8
{10}
н/о н/о -13.5 -14.5 92 -23 -23 994.1 994.0
21 18.01 З 8-11
{11}
н/о н/о -14.0 -15.0 92 -25 -25 994.9 995.0
22 18.01 З 7-9
{11}
н/о н/о -14.0 -15.0 92 -24 -24 995.1 995.0
23 18.01 З 2-8
{8}
н/о н/о -13.8 -14.7 93 -19 -19 995.4 995.0
00 19.01 ЮВ 2-3
{11}
н/о н/о -14.0 -15.0 92 -19 -19 995.5 996.0
01 19.01 В 1-2
{3}
н/о н/о -14.8 -15.9 91 -17 -17 996.5 997.0
02 19.01 СЗ 1-3
{4}
н/о н/о -14.8 -15.9 91 -17 -17 996.9 997.0
03 19.01 ЮЗ 4-5
{5}
н/о н/о -12.8 -13.8 92 -20 -20 995.2 995.0
04 19.01 Ю 3-6
{6}
н/о н/о -14.2 -15.3 91 -21 -21 996.7 997.0
05 19.01 ЮЗ 4-5
{8}
н/о н/о -12.6 -13.8 91 -20 -20 995.2 995.0
06 19.01 ЮЗ 5-6
{8}
н/о н/о -12.3 -13.4 91 -20 -20 995.1 995.0 -15.4 -12.2 51
07 19.01 ЮЗ 9-9
{15}
н/о н/о -11.5 -12.7 91 -22 -22 994.4 994.0
08 19.01 ЮЗ 7-14
{14}
н/о н/о -11.7 -12.9 91 -21 -21 995.3 995.0
09 19.01 Ю 5-10
{12}
н/о н/о -12.3 -13.9 88 -20 -20 995.9 996.0
10 19.01 ЮЗ 6-9
{12}
н/о н/о -12.1 -13.8 87 -21 -21 996.2 996.0
11 19.01 ЮЗ 6-9
{10}
н/о н/о -12.3 -13.8 89 -21 -21 997.0 997.0
12 19.01 ЮЗ 6-9
{15}
н/о н/о -12.2 -13.8 88 -21 -21 997.3 997.0
13 19.01 Ю 4-8
{8}
н/о н/о -12.6 -13.9 90 -20 -20 997.8 998.0
14 19.01 Ю 2-5
{5}
н/о н/о -13.0 -14.5 88 -18 -18 998.4 998.0
15 19.01 ЮВ 2-3
{6}
н/о н/о -14.2 -15.1 93 -19 -19 999.8 1000.0
16 19.01 ЮЗ 6-5
{12}
н/о н/о -12.1 -13.7 88 -21 -21 998.2 998.0
17 19.01 ЮЗ 7-10
{11}
н/о н/о -12.3 -13.9 88 -22 -22 998.6 999.0
18 19.01 Ю 4-7
{12}
н/о н/о -14.0 -15.1 91 -22 -22 1000.1 1000.0 -14.8 -11.4
19 19.01 Ю 5-7
{8}
н/о н/о -13.6 -15.2 88 -22 -22 1000.2 1000.0
20 19.01 Ю 4-8
{9}
н/о н/о -13.2 -14.4 91 -21 -21 1000.4 1000.0
21 19.01 Ю 6-6
{8}
н/о н/о -13.5 -14.3 94 -23 -23 1000.8 1001.0
22 19.01 Ю 6-7
{8}
н/о н/о -13.6 -14.5 93 -23 -23 1001.2 1001.0
23 19.01 Ю 4-8
{8}
н/о н/о -13.1 -14.0 93 -20 -20 1001.0 1001.0
00 20.01 Ю 9-7
{10}
н/о н/о -13.5 -14.7 91 -24 -24 1001.1 1001.0
01 20.01 Ю 8-10
{10}
н/о н/о -13.6 -14.9 90 -24 -24 1001.2 1001.0
02 20.01 Ю 6-10
{10}
н/о н/о -13.5 -14.5 92 -23 -23 1001.8 1002.0
03 20.01 Ю 9-9
{11}
н/о н/о -13.4 -14.3 93 -24 -24 1001.1 1001.0
04 20.01 Ю 9-11
{13}
н/о н/о -13.1 -14.0 93 -24 -24 1000.8 1001.0
05 20.01 Ю 9-10
{11}
н/о н/о -12.8 -13.7 93 -24 -24 1000.6 1001.0
06 20.01 Ю 9-11
{13}
н/о н/о -13.0 -14.0 92 -24 -24 1001.1 1001.0 -14.5 -12.7 51
07 20.01 Ю 11-11
{13}
н/о н/о -13.0 -14.0 92 -25 -25 1000.9 1001.0
08 20.01 Ю 9-11
{12}
н/о н/о -12.8 -13.7 93 -24 -24 1001.5 1002.0
09 20.01 Ю 12-11
{15}
н/о н/о -12.5 -13.5 92 -25 -25 1001.4 1001.0
10 20.01 Ю 11-12
{13}
н/о н/о -13.2 -14.2 92 -25 -25 1002.5 1003.0
11 20.01 Ю 9-12
{12}
н/о н/о -13.4 -14.3 93 -24 -24 1002.8 1003.0
12 20.01 Ю 11-11
{15}
н/о н/о -13.2 -14.1 93 -25 -25 1002.4 1002.0
13 20.01 Ю 10-12
{12}
н/о н/о -13.4 -14.6 91 -25 -25 1002.8 1003.0
14 20.01 Ю 9-11
{11}
н/о н/о -13.4 -14.5 91 -24 -24 1003.3 1003.0
15 20.01 Ю 10-11
{13}
н/о н/о -13.0 -14.3 90 -24 -24 1003.3 1003.0
16 20.01 Ю 9-12
{13}
н/о н/о -13.5 -14.7 91 -24 -24 1004.3 1004.0
17 20.01 Ю 7-10
{10}
н/о н/о -14.1 -15.1 92 -24 -24 1005.8 1006.0
18 20.01 Ю 4-7
{13}
н/о н/о -14.8 -15.9 91 -23 -23 1007.1 1007.0 -14.8 -12.4
19 20.01 Ю 3-7
{9}
н/о н/о -14.1 -15.2 91 -21 -21 1007.3 1007.0
20 20.01 Ю 2-4
{6}
н/о н/о -14.1 -15.1 92 -19 -19 1007.9 1008.0
21 20.01 Ю 2-4
{5}
н/о н/о -14.1 -15.0 93 -19 -19 1008.6 1009.0
22 20.01 ЮЗ 5-1
{6}
н/о н/о -13.0 -14.4 89 -21 -21 1008.4 1008.0
23 20.01 С 1-6
{6}
н/о н/о -13.2 -14.7 88 -16 -16 1008.8 1009.0
00 21.01 ЮЗ 6-1
{9}
н/о н/о -12.6 -15.2 81 -22 -22 1008.6 1009.0
01 21.01 штиль 0-7
{7}
н/о н/о -13.3 -15.1 86 -13 -13 1010.1 1010.0
02 21.01 штиль 0-1
{3}
н/о н/о -12.6 -14.7 84 -13 -13 1009.9 1010.0
03 21.01 штиль 0-2
{2}
н/о н/о -12.8 -14.8 85 -13 -13 1010.5 1011.0
04 21.01 СВ 1-2
{2}
н/о н/о -13.2 -15.0 86 -16 -16 1011.4 1011.0
05 21.01 ЮВ 1
{3}
н/о н/о -12.5 -15.0 82 -15 -15 1011.2 1011.0
06 21.01 С 1-3
{7}
н/о н/о -13.1 -15.0 86 -15 -15 1012.0 1012.0 -15.2 -12.2 51
07 21.01 ЮЗ 3-2
{6}
н/о н/о -13.7 -15.5 86 -20 -20 1013.1 1013.0
08 21.01 З 4-2
{5}
н/о н/о -14.1 -15.9 86 -22 -22 1013.7 1014.0
09 21.01 штиль 0-5
{5}
н/о н/о -12.6 -15.2 81 -13 -13 1012.9 1013.0
10 21.01 штиль 0-2
{2}
н/о н/о -11.6 -14.5 79 -12 -12 1012.6 1013.0
11 21.01 штиль 0-2
{2}
н/о н/о -11.3 -14.8 75 -11 -11 1012.3 1012.0
12 21.01 ЮВ 1
{6}
н/о н/о -12.0 -16.2 71 -14 -14 1012.8 1013.0
13 21.01 В 1-3
{3}
н/о н/о -12.7 -17.2 69 -15 -15 1013.4 1013.0
14 21.01 В 1-2
{3}
н/о н/о -15.0 -16.4 89 -18 -18 1015.7 1016.0
15 21.01 штиль 0-2
{2}
н/о н/о -13.8 -16.7 79 -14 -14 1014.4 1014.0
16 21.01 штиль 0-1
{1}
н/о н/о -13.1 -17.1 72 -13 -13 1013.8 1014.0
17 21.01 штиль 0
{1}
н/о н/о -13.6 -18.4 67 -14 -14 1014.1 1014.0
18 21.01 Ю 1
{3}
н/о н/о -13.0 -19.7 57 -15 -15 1013.0 1013.0 -15.4 -10.8
19 21.01 Ю 3-2
{4}
н/о н/о -12.5 -20.2 53 -19 -19 1012.4 1012.0
20 21.01 Ю 5-4
{5}
н/о н/о -14.8 -22.1 54 -24 -24 1014.0 1014.0
21 21.01 Ю 6-5
{7}
н/о н/о -14.5 -21.4 56 -24 -24 1013.5 1014.0
22 21.01 Ю 7-7
{8}
н/о н/о -15.0 -21.4 58 -25 -25 1013.5 1014.0
23 21.01 Ю 7-8
{8}
н/о н/о -14.3 -21.5 54 -24 -24 1012.6 1013.0
00 22.01 Ю 6-8
{8}
н/о н/о -13.9 -21.7 52 -23 -23 1011.8 1012.0
01 22.01 Ю 4-7
{7}
н/о н/о -14.0 -21.4 53 -22 -22 1011.8 1012.0
02 22.01 Ю 1-5
{5}
н/о н/о -12.7 -21.4 48 -15 -15 1010.1 1010.0
03 22.01 Ю 2-4
{4}
н/о н/о -13.2 -21.3 51 -18 -18 1010.0 1010.0
04 22.01 Ю 3-2
{4}
н/о н/о -13.2 -20.3 55 -19 -19 1009.7 1010.0
05 22.01 Ю 7-4
{9}
н/о н/о -14.4 -21.3 56 -25 -25 1009.9 1010.0
06 22.01 Ю 7
{9}
н/о н/о -13.1 -20.6 53 -23 -23 1008.7 1009.0 -15.2 51
07 22.01 Ю 6-9
{9}
н/о н/о -14.2 -18.6 69 -24 -24 1009.8 1010.0
08 22.01 Ю 7-9
{11}
н/о н/о -13.2 -17.7 69 -23 -23 1008.8 1009.0
09 22.01 Ю 7-10
{10}
н/о н/о -14.4 -16.9 81 -25 -25 1009.8 1010.0
10 22.01 ЮВ 5-7
{8}
н/о н/о -14.7 -16.5 86 -23 -23 1010.3 1010.0
11 22.01 ЮВ 5-8
{10}
н/о н/о -14.4 -16.1 87 -23 -23 1010.5 1011.0
12 22.01 ЮВ 5-6
{11}
н/о н/о -13.9 -15.9 85 -22 -22 1010.0 1010.0
13 22.01 ЮВ 3-8
{8}
н/о н/о -13.4 -16.2 79 -20 -20 1009.5 1010.0
14 22.01 Ю 5-5
{6}
н/о н/о -13.8 -15.9 84 -22 -22 1010.0 1010.0
15 22.01 Ю 5-6
{8}
н/о н/о -13.4 -15.5 84 -22 -22 1009.6 1010.0
16 22.01 Ю 3-9
{9}
н/о н/о -13.2 -16.1 79 -19 -19 1009.9 1010.0
17 22.01 Ю 6-5
{10}
н/о н/о -13.2 -15.6 82 -22 -22 1009.8 1010.0
18 22.01 Ю 6-7
{10}
н/о н/о -12.3 -15.3 78 -21 -21 1009.5 1010.0 -15.5 -12.3
19 22.01 ЮЗ 4-7
{8}
н/о н/о -12.5 -15.2 80 -20 -20 1009.7 1010.0
20 22.01 Ю 7-8
{11}
н/о н/о -12.6 -14.1 89 -22 -22 1009.8 1010.0
21 22.01 Ю 9-10
{10}
н/о н/о -12.8 -14.0 91 -24 -24 1010.0 1010.0
22 22.01 Ю 10-10
{12}
н/о н/о -12.2 -14.3 84 -23 -23 1009.9 1010.0
23 22.01 Ю 12-11
{15}
н/о н/о -11.0 -13.4 82 -23 -23 1008.1 1008.0
00 23.01 Ю 10-13
{15}
н/о н/о -12.5 -13.4 93 -24 -24 1009.5 1010.0
01 23.01 Ю 10-12
{12}
н/о н/о -12.5 -13.4 93 -24 -24 1009.3 1009.0
02 23.01 Ю 10 н/о н/о -12.4 -13.2 94 -24 -24 1009.3 1009.0

 

Местоположение метеостанции Juvvasshoe (Норвегия): широта 61.68 долгота 8.37 высота над уровнем моря 1894 м.

В архиве по умолчанию представлена погода в Juvvasshoe за последнюю неделю. Архивные данные за месяц целиком и за предыдущие месяцы, начиная с января 2011 года, Вы можете получить, выбрав интересующий диапазон дат из раскрывающегося списка и нажав кнопку "Ввод!".

Внимание! Время в таблицах - всемирное. Для получения местного времени необходимо прибавить поправку, которая в Juvvasshoe равна 1 ч.

Смотрите также архив погоды в соседних городах и на ближайших метеорологических станциях:

Погода в Sognefjellhytta (Норвегия) (23 км)
Погода в Brata (Норвегия) (36 км)
Погода в Grotli III (Норвегия) (53 км)
Погода в Beitostolen II (Норвегия) (56 км)
Погода в Skabu (Норвегия) (57 км)
Погода в Filefjell-Kyrkjestolane (Норвегия) (57 км)
Погода в Dombas-Nordigard (Норвегия) (59 км)
Погода в Bjorli (Норвегия) (65 км)
Погода в Fokstugu (Норвегия) (68 км)
Погода в Loken i Volbu (Норвегия) (72 км)

Пояснения к столбцам:

Ветер - указаны скорость ветра в м/с - средняя за 10 мин, порывы в срок и между сроками (в фигурных скобках) и направление, откуда дует ветер: С - северный, СВ - северо-восточный, В - восточный, ЮВ - юго-восточный, Ю - южный, ЮЗ - юго-западный, З - западный, СЗ - северо-западный.
Видимость - горизонтальная дальность видимости в метрах или километрах. При видимости от 1 до 10 км при отсутствии осадков обычно наблюдается дымка, при ухудшении видимости до 1 км и менее - туман. В сухую погоду видимость может ухудшаться дымом, пылью или мглою.
Явления - указаны атмосферные явления, наблюдавшиеся в срок или в последний час перед сроком; фигурными скобками обозначены явления, наблюдавшиеся между сроками (за 1-3 часа до срока); квадратными скобками обозначены град или гололедные отложения с указанием их диаметра в мм.
Облачность - указаны через наклонную черту общая и нижняя облачность в баллах и высота нижней границы облаков в метрах; квадратными скобками обозначены формы облаков: Ci - перистые, Cs - перисто-слоистые, Cc - перисто-кучевые, Ac - высококучевые, As - высокослоистые, Sc - слоисто-кучевые, Ns - слоисто-дождевые, Cu - кучевые, Cb - кучево-дождевые. Подробнее классификацию облаков см. в Атласе облаков (PDF).
T - Температура воздуха - температура, измеренная на высоте 2 м над землей.
Td - Температура точки росы - температура, при понижении до которой содержащийся в воздухе водяной пар достигнет насыщения.
f - Относительная влажность воздуха - влажноcть воздуха, измеренная на высоте 2 м над землей.
Te - Эффективная температура - температура, которую ощущает одетый по сезону человек в тени. Характеристика душности погоды. При расчете учитывается влияние влажности воздуха и скорости ветра на теплоощущения человека.
Tes - Эффективная температура на солнце - температура, которую ощущает человек, с поправкой на солнечный нагрев. Характеристика знойности погоды. Зависит от высоты солнца над горизонтом, облачности и скорости ветра. Ночью, в пасмурную погоду, а также при ветре 12 м/с и более поправка равна нулю.
P - Атмосферное давление - приведенное к уровню моря атмосферное давление.
Po - Атмосферное давление - измеренное на уровне метеостанции атмосферное давление.
Tmin - Минимальная температура - минимум температуры воздуха на высоте 2 м над землей.
Tmax - Максимальная температура - максимум температуры воздуха на высоте 2 м над землей.
R - Количество осадков - Количество выпавших осадков за период времени, мм. При наведении курсора мыши на число - период времени, за который выпало указанное количество осадков.
R24 - Количество осадков - Количество выпавших осадков за 24 часа, мм.
S - Снежный покров - Высота снежного покрова, см. При наведении курсора мыши на число - состояние снежного покрова и степень покрытия местности в баллах.